Location: Julian California
(33.0790°N, 116.6010°W)
Time: 04:53:06
(UTC-07:00)

Cosmos 1140 Rocket - Pass Details

Date: 12 July 2018
Orbit: 745 x 767 km, 74.1° (Epoch: 20 July)

Event Time Altitude Azimuth Distance (km) Brightness Sun altitude
Rises 20:44:07 0° 204° (SSW) 3,167 6.6 -9.3°
Reaches altitude 10° 20:46:30 10° 208° (SSW) 2,247 5.9 -9.7°
Maximum altitude 20:51:31 60° 288° (WNW) 846 4.1 -10.6°
Drops below altitude 10° 20:56:35 10° 9° (N) 2,264 6.3 -11.5°
Sets 20:58:59 0° 13° (NNE) 3,194 7.0 -11.9°
